"Pseudo-MPEC" for P11l4Ty

Created 2021 Sep 16 10:07:25 UT using Find_Orb

Click here for an explanation of pseudo-MPECs

 
 Astrometry: 
     P11l4Ty  C2021 09 13'JZ+!r.moAMIE1(El+4T_3EK4ZB`2E9A%xBw-5G(cJNN,su8a)wtF51
     P11l4Ty  C2021 09 13(cbDAstrometry#O:HB['A#Y(m00*redacted;8871gOLqGS\0ZgF51
     P11l4Ty  C2021 09 13Et5g0p.gOj4/!xn97+%X4Q):R]vS0)x*reniN6rr$\s#Pgn5FLIQF51
     P11l4Ty  C2021 09 13Vc^m9F#*D-VcVclicky7FL0J.]M8$uM$v0X9nK,nK/Rop/X.JLZ4F51
     P11l4Ty  C2021 09 13QBK$4*Ta.V7h*2m6[y33JvEP_IWs7.pcf*G@lUv]Nh:1$OOX=(9XF51
     P11l4Ty  C2021 09 13Re5LWCB@0Lg*rv'V$EDs1`Z?Wb3sue8dko.girn0fa]v?]t8nw;.F51
     P11l4Ty KC2021 09 1414eNG8IgQ3XuFDG:TJZ;aW5DQ'8(v!:1fhXYkEd$XdT$.!r=%,2gH21
     P11l4Ty KC2021 09 14cGeoOXQKYk\y3ohereX$nB]Lforak*olV2LcymFXOu6'!or7o`,'H21
     P11l4Ty KC2021 09 16dUJ![1l@Z9vGe_F2explanation@ljoB'vCPIZy/A'MPQ)1uQvh(H21
     P11l4Ty KC2021 09 16C-gC?aj0W2k-/uVCu?VGnaPZ#%1Sn9QU[tuBd_SP*a_%q]T7!0^pH21
     P11l4Ty KC2021 09 16q4PNm;(a/Y=D-l@LQt[5:,yowY[J+ITY=p;XYtO#\AC.Lqda,9%KH21

Station data:
(F51) Pan-STARRS 1, Haleakala  (N20.707235 W156.255910)  US/Hawaii.
   Observers N. Primak, A. Schultz, S. Watters, J. Thiel, T. Goggia. Measurer
   PS1 Science Consortium. 1.8-m Ritchey-Chrétien + CCD.
(H21) Astronomical Research Observatory, Westfield  (N39.483057 W87.968270)
   US/Illinois. 0.76-m f/3.0 astrograph + CCD.

Orbital elements:  P11l4Ty
   Perihelion 2021 Nov 1.443810 +/- 0.105593 TT = 10:39:05 (JD 2459519.943810)
Epoch 2021 Sep 16.0 TT = JDT 2459473.5   Earth MOID: 0.0016   AutoNEOCP
M 349.94756280 +/- 0.3254505        (J2000 ecliptic)
n   0.21644299 +/- 0.00655864       Peri.  227.23409 +/- 0.0845941
a   2.74730598 +/- 0.0554929        Node   186.69162 +/- 0.0620768
e   0.6839167 +/- 0.00672304        Incl.   11.95659 +/- 0.0885102
P   4.55                   H 25.1   G  0.15   U  9.4  
q 0.86837734 +/- 0.00102808    Q 4.62623461 +/- 0.113855
From 11 observations 2021 Sept. 13-16; mean residual 0".08
Residuals in arcseconds: 
210913 F51  .06+  .04-    210913 F51  .03-  .08-    210916 H21  .05-  .12-    
210913 F51  .07-  .07+    210913 F51  .07+  .01-    210916 H21  .12-  .08+    
210913 F51  .05-  .14+    210914 H21  .07+  .11+    210916 H21  .14+  .04+    
210913 F51  .11-  .09-    210914 H21  .03+  .11-    

Ephemerides (geocentric):
Date (UTC) HH   RA              Dec         delta   r     elong  mag " sig PA
---- -- -- --  -------------   -----------  ------ ------ -----  --- ---- ---
2021 09 16 10  22 16 45.233   +21 55 15.36  .11172 1.1024 148.8 21.8 .220 133
2021 09 16 11  22 16 46.087   +21 55 50.99  .11135 1.1020 148.7 21.8 .217 132
2021 09 16 12  22 16 46.953   +21 56 26.76  .11097 1.1017 148.7 21.8 .213 131
2021 09 16 13  22 16 47.831   +21 57 02.70  .11060 1.1013 148.7 21.8 .209 130
2021 09 16 14  22 16 48.721   +21 57 38.79  .11022 1.1009 148.7 21.8 .205 129
2021 09 16 15  22 16 49.622   +21 58 15.05  .10985 1.1006 148.7 21.8 .201 128
2021 09 16 16  22 16 50.536   +21 58 51.47  .10947 1.1002 148.7 21.8 .196 127
2021 09 16 17  22 16 51.462   +21 59 28.05  .10910 1.0999 148.7 21.8 .192 126
2021 09 16 18  22 16 52.400   +22 00 04.80  .10872 1.0995 148.6 21.8 .187 124
2021 09 16 19  22 16 53.351   +22 00 41.71  .10835 1.0992 148.6 21.8 .183 123
2021 09 16 20  22 16 54.314   +22 01 18.80  .10797 1.0988 148.6 21.8 .178 121
2021 09 16 21  22 16 55.290   +22 01 56.06  .10760 1.0985 148.6 21.8 .173 120
2021 09 16 22  22 16 56.279   +22 02 33.50  .10722 1.0981 148.6 21.7 .168 118
2021 09 16 23  22 16 57.281   +22 03 11.11  .10685 1.0977 148.6 21.7 .164 116
2021 09 17 00  22 16 58.296   +22 03 48.90  .10647 1.0974 148.5 21.7 .159 113
2021 09 17 01  22 16 59.323   +22 04 26.87  .10610 1.0970 148.5 21.7 .154 111
2021 09 17 02  22 17 00.365   +22 05 05.03  .10572 1.0967 148.5 21.7 .150 108
2021 09 17 03  22 17 01.419   +22 05 43.37  .10535 1.0963 148.5 21.7 .146 105
2021 09 17 04  22 17 02.488   +22 06 21.89  .10498 1.0960 148.5 21.7 .142 102
2021 09 17 05  22 17 03.570   +22 07 00.61  .10460 1.0956 148.5 21.7 .139  99
2021 09 17 06  22 17 04.665   +22 07 39.52  .10423 1.0953 148.4 21.7 .136  95
2021 09 17 07  22 17 05.775   +22 08 18.62  .10385 1.0949 148.4 21.7 .133  91
2021 09 17 08  22 17 06.899   +22 08 57.93  .10348 1.0946 148.4 21.7 .131  87
2021 09 17 09  22 17 08.037   +22 09 37.43  .10311 1.0942 148.4 21.7 .130  82
2021 09 17 10  22 17 09.190   +22 10 17.13  .10273 1.0939 148.4 21.7 .130  77
2021 09 17 11  22 17 10.357   +22 10 57.04  .10236 1.0935 148.4 21.6 .131  73
2021 09 17 12  22 17 11.539   +22 11 37.15  .10198 1.0932 148.4 21.6 .132  68
2021 09 17 13  22 17 12.736   +22 12 17.47  .10161 1.0928 148.3 21.6 .135  63
2021 09 17 14  22 17 13.948   +22 12 58.01  .10124 1.0924 148.3 21.6 .139  58
2021 09 17 15  22 17 15.175   +22 13 38.76  .10086 1.0921 148.3 21.6 .143  54
2021 09 17 16  22 17 16.417   +22 14 19.72  .10049 1.0917 148.3 21.6 .149  49
2021 09 17 17  22 17 17.675   +22 15 00.91  .10012 1.0914 148.3 21.6 .156  45
2021 09 17 18  22 17 18.948   +22 15 42.32  .09974 1.0910 148.3 21.6 .163  41
2021 09 17 19  22 17 20.237   +22 16 23.95  .09937 1.0907 148.2 21.6 .172  38
2021 09 17 20  22 17 21.542   +22 17 05.82  .09900 1.0903 148.2 21.6 .181  35
2021 09 17 21  22 17 22.864   +22 17 47.91  .09862 1.0900 148.2 21.6 .191  32
2021 09 17 22  22 17 24.201   +22 18 30.24  .09825 1.0896 148.2 21.6 .202  29
2021 09 17 23  22 17 25.556   +22 19 12.80  .09788 1.0893 148.2 21.5 .214  26
2021 09 18 00  22 17 26.926   +22 19 55.61  .09750 1.0889 148.2 21.5 .226  24
2021 09 18 01  22 17 28.314   +22 20 38.65  .09713 1.0886 148.1 21.5 .239  22
2021 09 18 02  22 17 29.719   +22 21 21.95  .09676 1.0882 148.1 21.5 .253  20
2021 09 18 03  22 17 31.140   +22 22 05.49  .09638 1.0879 148.1 21.5 .267  18
2021 09 18 04  22 17 32.580   +22 22 49.28  .09601 1.0875 148.1 21.5 .281  17
2021 09 18 05  22 17 34.037   +22 23 33.33  .09564 1.0872 148.1 21.5 .297  15
2021 09 18 06  22 17 35.511   +22 24 17.64  .09527 1.0868 148.1 21.5 .312  14
2021 09 18 07  22 17 37.004   +22 25 02.21  .09489 1.0865 148.1 21.5 .329  13
2021 09 18 08  22 17 38.514   +22 25 47.05  .09452 1.0861 148.0 21.5 .345  12
2021 09 18 09  22 17 40.044   +22 26 32.15  .09415 1.0858 148.0 21.5 .363  11